Tracking 27097 objects as of 29-Mar-2023
HD Live streaming from Space Station
objects crossing your sky now

BEIDOU 3M18

Track BEIDOU 3M18 now!
BEIDOU 3M18 is classified as:


NORAD ID: 43707
Int'l Code: 2018-093B
Perigee: 21,518.3 km
Apogee: 21,552.4 km
Inclination: 54.3 °
Period: 773.2 minutes
Semi major axis: 27906 km
RCS: Unknown
Launch date: November 18, 2018
Source: People's Republic of China (PRC)
Launch site: Xichang Space Center, China (XSC)
Your satellite tracking list
Your tracking list is empty




NASA's NSSDC Master Catalog

Two Line Element Set (TLE):
1 43707U 18093B   23087.76418962  .00000002  00000-0  00000-0 0  9997
2 43707  54.2890 222.2556 0006102 320.5121  78.2580  1.86229634 29628
Source of the keplerian elements: AFSPC